Location: Boiro
(42.6475°N, 8.8834°W)
Time: 18:04:26
(UTC+01:00)

Transit 2A Rocket - Pass Details

Date: 04 December 2021
Orbit: 585 x 917 km, 66.7° (Epoch: 26 January)

Event Time Altitude Azimuth Distance (km) Brightness Sun altitude
Rises 19:26:41 0° 314° (NW) 3,538 8.8 -15.0°
Reaches altitude 10° 19:30:05 10° 296° (WNW) 2,560 8.4 -15.7°
Maximum altitude 19:33:48 17° 257° (WSW) 2,029 8.3 -16.3°
Drops below altitude 10° 19:37:24 10° 218° (SW) 2,440 8.4 -16.9°
Sets 19:40:33 0° 199° (SSW) 3,305 8.8 -17.5°
